Albany, OH

5:07 AM EST on February 06, 2016 (GMT -0500)
Ohio University

Weather History for KUNI - November, 2012

Change the Weather History Date:

Wednesday, November 14, 2012

  Actual Average (KPKB) Record (KPKB)
Temperature  
Mean Temperature 30 °F 46 °F  
Max Temperature 41 °F 56 °F 79 °F (1993)
Min Temperature 20 °F 36 °F 10 °F (1986)
Degree Days  
Heating Degree Days 34 19  
Month to date heating degree days 236  
Since 1 July heating degree days 630  
Cooling Degree Days 0 0  
Month to date cooling degree days 0  
Year to date cooling degree days 953  
Moisture  
Dew Point 24 °F    
Average Humidity 77    
Maximum Humidity 94    
Minimum Humidity 52    
Precipitation  
Precipitation 0.00 in 0.11 in 1.25 in (2007)
Month to date precipitation 1.50  
Year to date precipitation 36.23  
Sea Level Pressure  
Sea Level Pressure 30.46 in    
Wind  
Wind Speed 2 mph (NE)    
Max Wind Speed 12 mph    
Max Gust Speed -    
Visibility 10 miles    
Events      
T = Trace of Precipitation, MM = Missing Value Source: NWS Daily Summary

Daily Weather History Graph

Daily Weather History Graph

Search for Another Location

Airport or City:

Trip Planner

Search our weather history database for the weather conditions in past years. The results will help you decide how hot, cold, wet, or windy it might be!

Date:

Astronomy

Nov. 14, 2012 Rise Set
Actual Time 7:11 AM EST 5:14 PM EST
Civil Twilight 6:43 AM EST 5:43 PM EST
Nautical Twilight 6:10 AM EST 6:15 PM EST
Astronomical Twilight 5:39 AM EST 6:47 PM EST
Moon 7:59 AM EST (11/14) 6:02 PM EST (11/14)
Length of Visible Light 11h 00m
Length of Day
10h 03m
New Moon, 1% of the Moon is Illuminated
Nov 14
New Moon
Nov 20
First Quarter
Nov 28
Full
Dec 6
Last Quarter
Dec 13
New

Hourly Weather History & Observations

Time (EST) Temp. Windchill Dew Point Humidity Pressure Visibility Wind Dir Wind Speed Gust Speed Precip Events Conditions
12:35 AM 24.6 °F - 22.8 °F 93% 30.50 in 10.0 mi Calm Calm - N/A   Clear
12:55 AM 24.6 °F - 22.8 °F 93% 30.50 in 10.0 mi Calm Calm - N/A   Clear
1:15 AM 24.3 °F - 22.5 °F 93% 30.49 in 10.0 mi Calm Calm - N/A   Clear
1:35 AM 23.9 °F - 21.9 °F 92% 30.49 in 10.0 mi Calm Calm - N/A   Clear
1:55 AM 23.9 °F - 22.1 °F 93% 30.50 in 10.0 mi Calm Calm - N/A   Clear
2:15 AM 23.0 °F - 21.0 °F 92% 30.50 in 10.0 mi Calm Calm - N/A   Clear
2:35 AM 23.4 °F - 21.7 °F 94% 30.50 in 10.0 mi Calm Calm - N/A   Clear
3:15 AM 22.1 °F - 20.3 °F 93% 30.49 in 10.0 mi Calm Calm - N/A   Clear
3:35 AM 22.5 °F - 20.3 °F 91% 30.50 in 10.0 mi Calm Calm - N/A   Clear
3:55 AM 23.0 °F - 21.2 °F 93% 30.49 in 10.0 mi Calm Calm - N/A   Clear
4:15 AM 22.3 °F - 20.3 °F 92% 30.50 in 10.0 mi Calm Calm - N/A   Clear
4:35 AM 21.7 °F - 19.9 °F 93% 30.51 in 10.0 mi Calm Calm - N/A   Clear
4:55 AM 21.7 °F - 19.9 °F 93% 30.51 in 10.0 mi Calm Calm - N/A   Clear
5:15 AM 21.7 °F - 20.3 °F 94% 30.51 in 10.0 mi Calm Calm - N/A   Clear
5:35 AM 21.4 °F - 19.6 °F 93% 30.51 in 10.0 mi Calm Calm - N/A   Clear
5:55 AM 20.8 °F - 18.9 °F 92% 30.51 in 10.0 mi Calm Calm - N/A   Clear
6:15 AM 21.2 °F - 19.4 °F 93% 30.51 in 10.0 mi Calm Calm - N/A   Clear
6:35 AM 21.2 °F - 19.4 °F 93% 30.51 in 10.0 mi Calm Calm - N/A   Clear
6:55 AM 21.7 °F - 19.9 °F 93% 30.52 in 10.0 mi Calm Calm - N/A   Clear
7:15 AM 21.7 °F - 19.6 °F 91% 30.52 in 10.0 mi Calm Calm - N/A   Clear
7:35 AM 21.7 °F - 19.6 °F 91% 30.52 in 10.0 mi Calm Calm - N/A   Clear
7:55 AM 21.7 °F - 19.4 °F 91% 30.52 in 10.0 mi Calm Calm - N/A   Clear
8:15 AM 23.0 °F - 21.2 °F 93% 30.53 in 10.0 mi Calm Calm - N/A   Clear
8:35 AM 25.9 °F - 23.4 °F 90% 30.53 in 10.0 mi Calm Calm - N/A   Clear
8:55 AM 27.1 °F 23.2 °F 24.1 °F 88% 30.53 in 10.0 mi ENE 3.5 mph - N/A   Clear
9:15 AM 29.1 °F 23.0 °F 25.5 °F 86% 30.52 in 10.0 mi ENE 5.8 mph - N/A   Clear
9:35 AM 31.3 °F 25.6 °F 26.8 °F 83% 30.52 in 10.0 mi ENE 5.8 mph - N/A   Clear
9:55 AM 32.2 °F 28.9 °F 26.4 °F 79% 30.53 in 10.0 mi ENE 3.5 mph - N/A   Clear
10:15 AM 33.8 °F - 26.1 °F 73% 30.53 in 10.0 mi Calm Calm - N/A   Clear
10:35 AM 35.6 °F 31.7 °F 26.8 °F 70% 30.52 in 10.0 mi ENE 4.6 mph - N/A   Clear
10:55 AM 37.2 °F 30.6 °F 26.6 °F 65% 30.53 in 10.0 mi ENE 9.2 mph - N/A   Clear
11:15 AM 38.8 °F 32.1 °F 26.4 °F 61% 30.52 in 10.0 mi ENE 10.4 mph - N/A   Clear
11:35 AM 39.2 °F 33.0 °F 26.1 °F 59% 30.51 in 10.0 mi ENE 9.2 mph - N/A   Clear
12:15 PM 40.1 °F 35.3 °F 25.5 °F 56% 30.49 in 10.0 mi NE 6.9 mph - N/A   Clear
12:35 PM 40.3 °F 34.4 °F 25.3 °F 55% 30.48 in 10.0 mi NE 9.2 mph - N/A   Clear
12:55 PM 41.0 °F 36.4 °F 25.5 °F 54% 30.47 in 10.0 mi NE 6.9 mph - N/A   Clear
1:15 PM 41.0 °F 35.2 °F 25.7 °F 55% 30.45 in 10.0 mi NNE 9.2 mph - N/A   Clear
1:35 PM 41.4 °F 35.7 °F 26.2 °F 55% 30.44 in 10.0 mi NE 9.2 mph - N/A   Clear
1:55 PM 41.5 °F 35.0 °F 25.7 °F 53% 30.43 in 10.0 mi NE 11.5 mph - N/A   Clear
2:15 PM 41.9 °F 36.3 °F 25.5 °F 52% 30.43 in 10.0 mi ENE 9.2 mph - N/A   Clear
2:35 PM 41.9 °F 36.3 °F 25.9 °F 53% 30.42 in 10.0 mi NNE 9.2 mph - N/A   Clear
2:55 PM 41.7 °F 36.7 °F 25.3 °F 52% 30.42 in 10.0 mi NNE 8.1 mph - N/A   Clear
3:15 PM 41.7 °F 36.1 °F 25.7 °F 53% 30.42 in 10.0 mi NNE 9.2 mph - N/A   Clear
3:35 PM 41.9 °F 36.9 °F 25.9 °F 53% 30.42 in 10.0 mi ENE 8.1 mph - N/A   Clear
3:55 PM 41.4 °F 38.4 °F 25.3 °F 53% 30.42 in 10.0 mi NNE 4.6 mph - N/A   Clear
4:15 PM 41.2 °F 37.3 °F 25.7 °F 54% 30.42 in 10.0 mi NNE 5.8 mph - N/A   Clear
4:35 PM 41.0 °F 37.1 °F 25.7 °F 55% 30.42 in 10.0 mi North 5.8 mph - N/A   Clear
4:55 PM 39.9 °F 36.7 °F 25.7 °F 57% 30.42 in 10.0 mi NNE 4.6 mph - N/A   Clear
5:35 PM 38.1 °F 34.6 °F 25.5 °F 61% 30.41 in 10.0 mi NNE 4.6 mph - N/A   Clear
5:55 PM 36.5 °F 31.8 °F 25.7 °F 65% 30.41 in 10.0 mi NNE 5.8 mph - N/A   Clear
6:35 PM 35.4 °F 32.6 °F 25.9 °F 68% 30.40 in 10.0 mi ENE 3.5 mph - N/A   Clear
6:55 PM 36.0 °F 33.3 °F 25.5 °F 66% 30.41 in 10.0 mi NNE 3.5 mph - N/A   Clear
7:15 PM 32.7 °F 27.3 °F 25.5 °F 75% 30.40 in 10.0 mi NE 5.8 mph - N/A   Clear
7:35 PM 34.7 °F 28.8 °F 26.1 °F 71% 30.40 in 10.0 mi NE 6.9 mph - N/A   Clear
7:55 PM 33.3 °F 27.9 °F 26.1 °F 75% 30.39 in 10.0 mi ENE 5.8 mph - N/A   Clear
8:15 PM 33.1 °F 30.0 °F 26.1 °F 75% 30.39 in 10.0 mi NE 3.5 mph - N/A   Clear
8:35 PM 34.0 °F - 26.1 °F 73% 30.40 in 10.0 mi Calm Calm - N/A   Clear
9:15 PM 32.0 °F - 26.2 °F 79% 30.40 in 10.0 mi Calm Calm - N/A   Clear
9:35 PM 32.2 °F - 26.6 °F 80% 30.40 in 10.0 mi Calm Calm - N/A   Clear
9:55 PM 31.8 °F 28.5 °F 26.6 °F 81% 30.39 in 10.0 mi ENE 3.5 mph - N/A   Clear
10:15 PM 30.9 °F - 27.1 °F 86% 30.39 in 10.0 mi Calm Calm - N/A   Clear
10:35 PM 31.5 °F - 27.1 °F 84% 30.39 in 10.0 mi Calm Calm - N/A   Clear
10:55 PM 29.5 °F - 25.9 °F 86% 30.38 in 10.0 mi Calm Calm - N/A   Clear
11:15 PM 29.7 °F - 26.1 °F 86% 30.37 in 10.0 mi Calm Calm - N/A   Clear
11:35 PM 29.5 °F - 26.4 °F 88% 30.37 in 10.0 mi Calm Calm - N/A   Clear